SCP
0 0 0 0 0 0 0 0 0 0 0 0 0 0 0 0 0 0 0 0 0 0 0 0 0 0 0 0 0 0 0 0 0 0 0 0 0 0 0 0 0 0 0
0 0 0 -0 0 0 0 0 0 0 0 -0 0 0 0 0 0 0 0 0 0 0 0 0 0 0 0 0 0 0 0 0 0 0 0 0 0 0 0 0 0 0 0
-0 -0 0 0 -0 0 0 0 0 0 0 0 0 0 0 0 0 0 0 0 0 0 0 0 0 0 0 0 0 0 0 0 0 0 0 0 0 0 0 0 0 0 0
-0 0 -0 -0 -0 0 0 0 0 0 0 0 0 0 0 0 0 0 0 0 0 0 0 0 0 0 0 0 0 0 0 0 0 0 0 0 0 0 0 0 0 0 0
0 0 0 -0 -0 -0 0 0 0 0 0 0 0 0 0 0 0 0 0 0 0 0 0 0 0 0 0 0 0 0 0 0 0 0 0 0 0 0 0 0 0 0 0
0 0 0 0 0 0 -0 0 0 0 0 0 0 0 0 0 0 0 0 0 0 0 0 0 0 0 0 0 0 0 0 0 0 0 0 0 0 0 0 0 0 0 0
0 0 0 -0 -0 0 0 0 0 0 0 0 0 0 0 0 0 0 0 0 0 0 0 0 0 0 0 0 0 0 0 0 0 0 0 0 0 0 0 0 0 0 0
0 0 0 -0 -0 -0 0 0 0 0 0 0 0 0 0 0 0 0 0 0 0 0 0 0 0 0 0 0 0 0 0 0 0 0 0 0 0 0 0 0 0 0 0
0 0 0 -0 -0 -0 -0 0 0 0 0 0 0 0 0 0 0 0 0 0 0 0 0 0 0 0 0 0 0 0 0 0 0 0 0 0 0 0 0 0 0 0 0
0 0 0 0 -0 -0 -0 -0 -0 -0 0 0 0 0 0 0 0 0 0 0 0 0 0 0 0 0 0 0 0 0 0 0 0 0 0 0 0 0 0 0 0 0 0
0 0 0 0 0 -0 -0 -0 -0 -0 -0 0 0 0 0 0 0 0 0 0 0 0 0 0 0 0 0 0 0 0 0 0 0 0 0 0 0 0 0 0 0 0 0
0 0 0 0 0 0 -0 -0 -0 -0 -0 0 0 0 0 0 0 0 0 0 0 0 0 0 0 -0 0 0 0 0 0 0 0 0 0 0 0 0 0 0 0 0 0
0 0 0 0 0 0 0 -0 -0 -0 -0 -0 0 0 0 0 0 0 0 0 0 0 0 0 0 0 0 0 0 0 0 0 0 0 0 0 0 0 0 0 0 0 0
0 0 0 0 0 0 0 -0 -0 -0 -0 -0 -0 0 0 0 0 0 0 0 0 0 0 0 0 0 0 0 0 0 0 0 0 0 0 0 0 0 0 0 0 0 0
0 0 0 0 0 0 0 0 -0 -0 -0 -0 0 0 0 0 0 0 0 0 0 0 0 0 0 0 0 0 0 0 0 0 0 0 0 0 0 0 0 0 0 0 0
0 0 0 0 0 0 0 0 0 -0 -0 0 0 0 0 0 0 0 0 0 0 0 0 0 0 0 0 0 0 0 0 0 0 0 0 0 0 0 0 0 0 0 0
0 0 0 0 0 0 0 0 0 0 0 0 0 0 0 0 0 0 0 0 0 0 0 0 0 0 0 0 0 0 0 0 0 0 0 0 0 0 0 0 0 0 0
0 0 0 0 0 0 0 0 0 0 0 0 0 0 0 0 0 0 0 0 0 0 0 0 0 0 0 0 0 0 0 0 0 0 0 0 0 0 0 0 0 0 0
0 0 0 0 0 0 0 0 0 0 0 0 0 0 0 0 0 0 0 0 0 0 0 0 0 0 0 0 0 0 0 0 0 0 0 0 0 0 0 0 0 0 0
0 0 0 0 0 0 0 0 0 0 0 0 0 0 0 0 0 0 0 0 0 0 0 0 0 0 0 0 0 0 0 0 0 0 0 0 0 0 0 0 0 0 0
0 0 0 0 0 0 0 0 0 0 0 0 0 0 0 0 0 0 0 0 0 0 0 0 0 0 0 0 0 0 0 0 0 0 0 0 0 0 0 0 0 0 0
0 0 0 0 0 0 0 0 0 0 0 0 0 0 0 0 0 0 0 0 0 0 0 0 0 0 0 0 0 0 0 0 0 0 0 0 0 0 0 0 0 0 0
0 0 0 0 0 0 0 0 0 0 0 0 0 0 0 0 0 0 0 0 0 0 0 0 0 0 0 0 0 0 -0 -0 0 0 0 0 0 0 0 0 0 0 0
0 0 0 0 0 0 0 0 0 0 0 0 0 0 0 0 0 0 0 0 0 0 0 0 0 0 0 0 0 0 -0 -0 -0 -0 -0 -0 -0 -0 -0 -0 0 0 0
0 0 0 0 0 0 0 0 0 0 0 0 0 0 0 0 0 0 0 0 0 0 0 0 0 0 0 0 0 -0 -0 -0 -0 -0 -0 -0 -0 -0 -0 0 0 0 0
0 0 0 0 0 0 0 0 0 0 -0 0 0 0 0 0 0 0 0 0 0 0 0 0 0 0 0 0 0 0 -0 -0 -0 -0 -0 -0 -0 -0 -0 0 0 0 0
Wind_Speed_500mb
34 23 11 20 31 51 47 56 64 62 75 63 55 31 47 55 55 47 47 48 45 43 39 35 30 23 15 12 9 7 3 6 9 8 7 10 12 15 21 27 31 32 37
28 28 33 26 21 27 41 44 55 45 35 36 37 75 69 68 56 56 54 55 51 52 51 47 39 27 24 20 17 12 4 5 13 10 6 8 12 18 24 27 30 34 39
29 32 38 24 17 22 29 37 44 48 62 65 72 75 73 66 69 62 64 69 60 60 58 53 46 38 34 32 26 19 11 6 10 11 10 11 17 24 27 29 32 30 33
34 37 42 43 37 16 22 37 42 53 54 59 58 56 62 73 70 56 66 80 67 64 65 59 54 47 42 36 31 25 21 17 11 10 13 16 23 27 31 35 37 37 37
35 34 35 37 38 36 19 20 33 37 43 52 54 56 61 67 67 65 72 70 64 72 71 65 60 53 47 41 36 33 30 27 24 15 16 18 24 29 33 41 45 46 41
33 37 35 35 36 36 33 22 17 20 26 34 45 53 49 63 75 87 80 82 74 79 74 66 63 56 51 51 39 40 40 37 32 27 24 22 24 32 36 40 45 45 48
30 31 34 30 32 34 33 29 24 26 35 43 44 46 57 62 61 77 74 85 73 73 82 74 68 62 53 50 44 46 47 43 39 34 33 30 29 34 37 39 38 40 38
28 29 34 39 39 40 36 33 28 28 37 41 39 34 39 48 42 45 61 74 82 71 53 68 71 57 47 49 49 53 53 49 42 39 38 35 34 36 38 35 34 37 35
28 28 30 35 40 41 44 40 38 33 28 33 39 49 45 40 44 36 39 70 88 60 70 78 86 55 47 53 59 57 56 52 46 44 44 40 37 39 40 31 30 33 36
27 27 35 37 40 40 44 43 40 38 33 29 30 34 32 35 28 24 33 49 65 71 63 60 91 95 79 56 47 58 60 59 52 47 48 43 38 39 39 30 29 30 30
31 33 34 36 37 40 40 42 37 37 40 30 28 37 41 39 34 27 42 41 39 44 57 63 83 70 65 63 61 61 65 57 54 50 51 44 40 41 35 30 30 31 34
30 33 30 33 37 38 40 41 39 35 34 40 23 22 28 28 32 38 42 50 62 66 68 62 67 71 62 55 54 56 58 60 59 56 53 46 43 41 35 32 31 35 37
32 38 33 32 34 37 37 39 40 36 30 32 29 21 27 24 26 30 31 28 24 41 43 55 65 67 69 71 78 70 62 68 67 62 54 47 43 41 37 34 33 34 40
35 35 34 35 35 35 35 35 33 32 29 23 22 23 23 29 23 24 24 27 31 39 48 47 46 47 56 47 53 56 64 73 71 62 52 48 48 44 41 39 35 34 44
45 40 31 35 35 35 31 28 30 29 26 22 18 24 22 22 26 26 28 29 33 33 37 49 64 63 51 53 57 59 72 81 75 64 56 50 45 43 41 39 38 40 43
64 59 35 39 42 39 33 28 24 23 25 20 17 14 22 18 16 18 18 21 29 32 26 26 39 52 64 65 58 65 74 66 57 55 49 40 40 39 39 42 46 44 38
50 65 58 43 47 41 32 25 19 10 14 14 15 6 9 10 10 17 15 8 12 11 12 12 24 35 41 43 48 46 49 43 36 35 32 34 39 45 47 48 47 45 35
60 64 55 45 52 42 34 23 21 14 10 9 4 8 16 17 22 17 14 14 10 11 10 4 1 4 9 14 23 29 34 39 41 42 46 49 50 47 49 49 51 42 30
22 29 48 55 48 37 32 26 27 20 15 17 14 7 7 8 7 4 3 3 4 10 7 8 10 10 13 19 23 27 33 36 39 45 45 46 47 47 47 44 38 31 30
22 21 22 21 29 33 35 27 23 19 16 18 13 9 8 7 7 10 11 14 12 10 9 9 9 8 10 14 19 21 22 24 27 31 33 35 37 39 39 34 28 28 29
33 33 32 39 40 39 36 30 23 17 14 13 11 12 15 13 12 13 12 10 7 5 2 4 4 4 5 4 8 12 13 16 18 22 25 29 30 31 25 22 24 27 27
24 29 35 36 33 30 29 20 22 22 20 24 22 22 21 17 12 11 13 16 16 11 8 8 6 6 4 7 10 13 18 23 24 28 29 27 29 29 28 28 29 30 29
28 29 29 37 37 27 28 23 25 25 28 23 23 26 18 15 17 18 17 19 16 9 6 3 5 10 12 12 14 15 19 23 25 28 29 25 23 27 31 30 32 35 35
26 26 25 27 29 34 34 34 31 29 25 27 24 20 25 27 23 20 19 16 12 11 9 6 8 7 7 8 10 11 15 18 18 15 14 12 12 18 27 30 31 33 33
21 18 23 32 46 44 49 42 42 35 28 26 28 33 30 26 22 19 20 21 21 20 19 17 15 13 13 16 21 25 22 20 21 17 10 6 1 7 13 18 23 26 29
31 30 49 56 54 54 49 46 36 34 34 32 29 26 28 23 22 23 25 26 27 28 29 29 27 23 20 23 24 26 29 29 24 22 17 12 7 5 8 12 16 21 25
Wind_Direction_500mb
45 27 351 273 243 234 226 236 253 251 248 250 234 249 267 241 230 236 235 234 236 233 229 227 224 222 203 198 194 178 131 36 9 325 307 312 335 337 333 334 337 334 331
6 350 352 331 287 247 237 217 234 249 244 309 270 262 237 239 235 223 239 240 235 235 231 224 226 223 219 215 219 218 222 357 355 349 356 349 351 347 349 345 344 337 331
348 9 17 11 320 287 249 246 251 230 219 234 234 260 242 235 226 223 230 248 240 238 237 233 228 231 220 223 225 236 246 281 343 350 345 350 352 345 349 344 340 337 328
354 343 345 353 356 344 262 247 241 247 245 231 259 247 243 232 230 244 220 234 239 237 241 237 236 231 226 224 227 240 254 268 289 321 319 333 333 338 337 336 337 336 337
344 341 341 348 356 350 342 256 230 234 252 245 247 240 242 248 240 245 233 234 237 235 236 237 235 234 233 232 231 237 251 264 271 286 297 307 320 328 331 334 333 332 341
333 338 340 336 347 354 350 326 270 241 255 254 246 252 256 246 246 249 256 241 237 232 229 234 239 233 231 234 231 236 243 250 265 276 288 296 313 321 325 328 326 333 343
314 325 331 343 346 347 356 343 316 268 255 251 250 257 260 258 254 256 260 247 234 235 235 225 238 236 230 232 235 237 241 249 258 268 279 293 306 312 315 323 324 327 336
305 322 329 328 331 331 334 339 340 297 270 261 254 253 273 259 256 256 253 248 248 244 237 220 232 238 233 237 239 239 243 250 257 266 271 281 293 301 309 316 321 327 337
285 305 317 324 325 324 325 330 327 329 309 266 260 260 264 261 255 252 246 241 228 242 239 214 211 227 228 260 247 241 243 251 253 261 265 273 285 296 306 307 318 326 328
276 290 304 316 324 327 327 327 327 321 319 284 264 251 241 247 266 252 241 249 243 239 227 213 224 223 231 239 248 238 241 246 250 256 261 267 279 290 295 297 308 314 323
265 273 288 305 319 323 334 327 330 326 317 309 275 243 235 251 242 228 243 245 236 245 235 224 220 218 250 242 248 245 244 245 246 250 255 262 274 280 279 286 298 308 309
263 260 267 290 307 320 321 326 321 325 325 316 300 260 242 226 222 217 225 242 242 248 250 238 239 235 235 235 242 249 242 241 242 245 252 258 266 270 267 277 288 299 302
257 261 257 274 294 311 320 322 317 324 324 321 303 283 258 243 233 226 238 240 245 251 251 252 252 247 250 251 258 237 236 234 240 244 249 256 261 258 258 268 280 294 301
255 260 251 256 278 296 310 322 320 323 325 311 301 278 250 248 251 254 251 254 246 242 247 250 247 242 246 247 234 229 232 233 241 246 251 254 252 251 255 263 276 288 296
256 271 251 252 265 281 294 312 314 318 324 320 285 274 263 249 244 249 246 243 237 244 249 249 250 248 245 229 227 230 227 229 230 232 237 245 248 252 261 269 279 290 296
246 259 268 252 258 266 281 297 297 310 331 332 307 260 253 260 257 244 239 226 226 230 234 254 252 246 246 237 238 228 217 221 224 229 231 236 242 251 265 275 284 287 289
246 255 260 257 249 254 271 281 271 282 352 38 55 108 195 189 135 89 84 141 163 190 210 236 236 230 226 219 217 213 218 227 231 233 241 242 254 264 270 275 278 284 283
251 248 246 247 240 250 259 266 245 236 263 283 22 56 81 75 76 60 46 46 56 68 82 97 30 226 229 241 239 240 242 236 238 242 253 265 270 272 274 276 280 279 260
262 251 242 240 235 241 247 246 239 231 248 268 265 219 160 123 122 104 25 29 95 101 112 146 173 195 222 232 242 246 251 253 255 256 264 271 274 272 273 276 276 254 237
268 234 224 233 236 247 249 239 234 240 230 252 245 215 182 134 149 127 115 105 95 111 130 146 166 186 221 232 241 248 257 259 263 266 267 266 266 269 272 265 246 228 234
261 250 239 233 238 246 249 243 227 226 210 222 194 160 137 120 117 120 119 106 98 80 90 119 120 186 223 238 263 266 271 280 285 290 290 279 270 264 262 238 226 232 241
271 250 238 235 236 236 234 219 228 195 168 151 134 127 119 115 116 114 101 92 81 76 72 64 36 334 338 308 287 291 296 305 307 300 297 280 259 250 246 242 240 245 254
282 247 234 223 221 220 203 187 150 140 138 129 129 122 123 133 136 123 121 100 92 67 39 43 1 335 331 316 305 312 306 309 311 307 300 285 256 240 239 243 247 255 259
253 211 204 199 194 189 180 156 140 133 131 130 126 131 132 132 133 124 109 92 86 90 91 77 61 42 15 355 6 4 358 359 347 334 309 289 263 245 243 247 250 258 264
133 160 184 179 175 166 153 138 133 131 132 132 127 130 130 128 120 103 88 85 85 84 80 71 61 52 44 37 35 36 34 33 19 22 13 20 348 235 238 251 259 263 264
105 125 152 162 149 136 133 134 135 135 134 130 123 124 124 114 105 98 92 92 90 86 80 74 69 62 58 54 48 42 41 44 33 32 26 27 8 331 303 299 292 281 272
Wind_Speed_850mb
34 23 11 20 31 51 47 56 64 62 75 63 55 31 47 55 55 47 47 48 45 43 39 35 30 23 15 12 9 7 3 6 9 8 7 10 12 15 21 27 31 32 37
28 28 33 26 21 27 41 44 55 45 35 36 37 75 69 68 56 56 54 55 51 52 51 47 39 27 24 20 17 12 4 5 13 10 6 8 12 18 24 27 30 34 39
29 32 38 24 17 22 29 37 44 48 62 65 72 75 73 66 69 62 64 69 60 60 58 53 46 38 34 32 26 19 11 6 10 11 10 11 17 24 27 29 32 30 33
34 37 42 43 37 16 22 37 42 53 54 59 58 56 62 73 70 56 66 80 67 64 65 59 54 47 42 36 31 25 21 17 11 10 13 16 23 27 31 35 37 37 37
35 34 35 37 38 36 19 20 33 37 43 52 54 56 61 67 67 65 72 70 64 72 71 65 60 53 47 41 36 33 30 27 24 15 16 18 24 29 33 41 45 46 41
33 37 35 35 36 36 33 22 17 20 26 34 45 53 49 63 75 87 80 82 74 79 74 66 63 56 51 51 39 40 40 37 32 27 24 22 24 32 36 40 45 45 48
30 31 34 30 32 34 33 29 24 26 35 43 44 46 57 62 61 77 74 85 73 73 82 74 68 62 53 50 44 46 47 43 39 34 33 30 29 34 37 39 38 40 38
28 29 34 39 39 40 36 33 28 28 37 41 39 34 39 48 42 45 61 74 82 71 53 68 71 57 47 49 49 53 53 49 42 39 38 35 34 36 38 35 34 37 35
28 28 30 35 40 41 44 40 38 33 28 33 39 49 45 40 44 36 39 70 88 60 70 78 86 55 47 53 59 57 56 52 46 44 44 40 37 39 40 31 30 33 36
27 27 35 37 40 40 44 43 40 38 33 29 30 34 32 35 28 24 33 49 65 71 63 60 91 95 79 56 47 58 60 59 52 47 48 43 38 39 39 30 29 30 30
31 33 34 36 37 40 40 42 37 37 40 30 28 37 41 39 34 27 42 41 39 44 57 63 83 70 65 63 61 61 65 57 54 50 51 44 40 41 35 30 30 31 34
30 33 30 33 37 38 40 41 39 35 34 40 23 22 28 28 32 38 42 50 62 66 68 62 67 71 62 55 54 56 58 60 59 56 53 46 43 41 35 32 31 35 37
32 38 33 32 34 37 37 39 40 36 30 32 29 21 27 24 26 30 31 28 24 41 43 55 65 67 69 71 78 70 62 68 67 62 54 47 43 41 37 34 33 34 40
35 35 34 35 35 35 35 35 33 32 29 23 22 23 23 29 23 24 24 27 31 39 48 47 46 47 56 47 53 56 64 73 71 62 52 48 48 44 41 39 35 34 44
45 40 31 35 35 35 31 28 30 29 26 22 18 24 22 22 26 26 28 29 33 33 37 49 64 63 51 53 57 59 72 81 75 64 56 50 45 43 41 39 38 40 43
64 59 35 39 42 39 33 28 24 23 25 20 17 14 22 18 16 18 18 21 29 32 26 26 39 52 64 65 58 65 74 66 57 55 49 40 40 39 39 42 46 44 38
50 65 58 43 47 41 32 25 19 10 14 14 15 6 9 10 10 17 15 8 12 11 12 12 24 35 41 43 48 46 49 43 36 35 32 34 39 45 47 48 47 45 35
60 64 55 45 52 42 34 23 21 14 10 9 4 8 16 17 22 17 14 14 10 11 10 4 1 4 9 14 23 29 34 39 41 42 46 49 50 47 49 49 51 42 30
22 29 48 55 48 37 32 26 27 20 15 17 14 7 7 8 7 4 3 3 4 10 7 8 10 10 13 19 23 27 33 36 39 45 45 46 47 47 47 44 38 31 30
22 21 22 21 29 33 35 27 23 19 16 18 13 9 8 7 7 10 11 14 12 10 9 9 9 8 10 14 19 21 22 24 27 31 33 35 37 39 39 34 28 28 29
33 33 32 39 40 39 36 30 23 17 14 13 11 12 15 13 12 13 12 10 7 5 2 4 4 4 5 4 8 12 13 16 18 22 25 29 30 31 25 22 24 27 27
24 29 35 36 33 30 29 20 22 22 20 24 22 22 21 17 12 11 13 16 16 11 8 8 6 6 4 7 10 13 18 23 24 28 29 27 29 29 28 28 29 30 29
28 29 29 37 37 27 28 23 25 25 28 23 23 26 18 15 17 18 17 19 16 9 6 3 5 10 12 12 14 15 19 23 25 28 29 25 23 27 31 30 32 35 35
26 26 25 27 29 34 34 34 31 29 25 27 24 20 25 27 23 20 19 16 12 11 9 6 8 7 7 8 10 11 15 18 18 15 14 12 12 18 27 30 31 33 33
21 18 23 32 46 44 49 42 42 35 28 26 28 33 30 26 22 19 20 21 21 20 19 17 15 13 13 16 21 25 22 20 21 17 10 6 1 7 13 18 23 26 29
31 30 49 56 54 54 49 46 36 34 34 32 29 26 28 23 22 23 25 26 27 28 29 29 27 23 20 23 24 26 29 29 24 22 17 12 7 5 8 12 16 21 25
Wind_Direction_850mb
45 27 351 273 243 234 226 236 253 251 248 250 234 249 267 241 230 236 235 234 236 233 229 227 224 222 203 198 194 178 131 36 9 325 307 312 335 337 333 334 337 334 331
6 350 352 331 287 247 237 217 234 249 244 309 270 262 237 239 235 223 239 240 235 235 231 224 226 223 219 215 219 218 222 357 355 349 356 349 351 347 349 345 344 337 331
348 9 17 11 320 287 249 246 251 230 219 234 234 260 242 235 226 223 230 248 240 238 237 233 228 231 220 223 225 236 246 281 343 350 345 350 352 345 349 344 340 337 328
354 343 345 353 356 344 262 247 241 247 245 231 259 247 243 232 230 244 220 234 239 237 241 237 236 231 226 224 227 240 254 268 289 321 319 333 333 338 337 336 337 336 337
344 341 341 348 356 350 342 256 230 234 252 245 247 240 242 248 240 245 233 234 237 235 236 237 235 234 233 232 231 237 251 264 271 286 297 307 320 328 331 334 333 332 341
333 338 340 336 347 354 350 326 270 241 255 254 246 252 256 246 246 249 256 241 237 232 229 234 239 233 231 234 231 236 243 250 265 276 288 296 313 321 325 328 326 333 343
314 325 331 343 346 347 356 343 316 268 255 251 250 257 260 258 254 256 260 247 234 235 235 225 238 236 230 232 235 237 241 249 258 268 279 293 306 312 315 323 324 327 336
305 322 329 328 331 331 334 339 340 297 270 261 254 253 273 259 256 256 253 248 248 244 237 220 232 238 233 237 239 239 243 250 257 266 271 281 293 301 309 316 321 327 337
285 305 317 324 325 324 325 330 327 329 309 266 260 260 264 261 255 252 246 241 228 242 239 214 211 227 228 260 247 241 243 251 253 261 265 273 285 296 306 307 318 326 328
276 290 304 316 324 327 327 327 327 321 319 284 264 251 241 247 266 252 241 249 243 239 227 213 224 223 231 239 248 238 241 246 250 256 261 267 279 290 295 297 308 314 323
265 273 288 305 319 323 334 327 330 326 317 309 275 243 235 251 242 228 243 245 236 245 235 224 220 218 250 242 248 245 244 245 246 250 255 262 274 280 279 286 298 308 309
263 260 267 290 307 320 321 326 321 325 325 316 300 260 242 226 222 217 225 242 242 248 250 238 239 235 235 235 242 249 242 241 242 245 252 258 266 270 267 277 288 299 302
257 261 257 274 294 311 320 322 317 324 324 321 303 283 258 243 233 226 238 240 245 251 251 252 252 247 250 251 258 237 236 234 240 244 249 256 261 258 258 268 280 294 301
255 260 251 256 278 296 310 322 320 323 325 311 301 278 250 248 251 254 251 254 246 242 247 250 247 242 246 247 234 229 232 233 241 246 251 254 252 251 255 263 276 288 296
256 271 251 252 265 281 294 312 314 318 324 320 285 274 263 249 244 249 246 243 237 244 249 249 250 248 245 229 227 230 227 229 230 232 237 245 248 252 261 269 279 290 296
246 259 268 252 258 266 281 297 297 310 331 332 307 260 253 260 257 244 239 226 226 230 234 254 252 246 246 237 238 228 217 221 224 229 231 236 242 251 265 275 284 287 289
246 255 260 257 249 254 271 281 271 282 352 38 55 108 195 189 135 89 84 141 163 190 210 236 236 230 226 219 217 213 218 227 231 233 241 242 254 264 270 275 278 284 283
251 248 246 247 240 250 259 266 245 236 263 283 22 56 81 75 76 60 46 46 56 68 82 97 30 226 229 241 239 240 242 236 238 242 253 265 270 272 274 276 280 279 260
262 251 242 240 235 241 247 246 239 231 248 268 265 219 160 123 122 104 25 29 95 101 112 146 173 195 222 232 242 246 251 253 255 256 264 271 274 272 273 276 276 254 237
268 234 224 233 236 247 249 239 234 240 230 252 245 215 182 134 149 127 115 105 95 111 130 146 166 186 221 232 241 248 257 259 263 266 267 266 266 269 272 265 246 228 234
261 250 239 233 238 246 249 243 227 226 210 222 194 160 137 120 117 120 119 106 98 80 90 119 120 186 223 238 263 266 271 280 285 290 290 279 270 264 262 238 226 232 241
271 250 238 235 236 236 234 219 228 195 168 151 134 127 119 115 116 114 101 92 81 76 72 64 36 334 338 308 287 291 296 305 307 300 297 280 259 250 246 242 240 245 254
282 247 234 223 221 220 203 187 150 140 138 129 129 122 123 133 136 123 121 100 92 67 39 43 1 335 331 316 305 312 306 309 311 307 300 285 256 240 239 243 247 255 259
253 211 204 199 194 189 180 156 140 133 131 130 126 131 132 132 133 124 109 92 86 90 91 77 61 42 15 355 6 4 358 359 347 334 309 289 263 245 243 247 250 258 264
133 160 184 179 175 166 153 138 133 131 132 132 127 130 130 128 120 103 88 85 85 84 80 71 61 52 44 37 35 36 34 33 19 22 13 20 348 235 238 251 259 263 264
105 125 152 162 149 136 133 134 135 135 134 130 123 124 124 114 105 98 92 92 90 86 80 74 69 62 58 54 48 42 41 44 33 32 26 27 8 331 303 299 292 281 272